Marshfield, WI

5:20 PM CST on December 18, 2017 (GMT -0600)
Marshfield Municipal

Weather History for KMFI - October, 2011

Change the Weather History Date:

Monday, October 3, 2011

  Actual Average Record
Temperature  
Mean Temperature 59 °F -  
Max Temperature 73 °F 65 °F 84 °F (1997)
Min Temperature 45 °F 40 °F 21 °F (1987)
Degree Days  
Heating Degree Days 6    
Growing Degree Days 9 (Base 50)    
Moisture  
Dew Point 46 °F    
Average Humidity 62    
Maximum Humidity 90    
Minimum Humidity 41    
Precipitation  
Precipitation 0.00 in - - ()
Sea Level Pressure  
Sea Level Pressure 30.25 in    
Wind  
Wind Speed 4 mph (East)    
Max Wind Speed 9 mph    
Max Gust Speed -    
Visibility 7 miles    
Events      
Averages and records for this station are not official NWS values.
T = Trace of Precipitation, MM = Missing Value Source: NWS Daily Summary

Daily Weather History Graph

Daily Weather History Graph

Search for Another Location

Airport or City:

Trip Planner

Search our weather history database for the weather conditions in past years. The results will help you decide how hot, cold, wet, or windy it might be!

Date:

Astronomy

Oct. 03, 2011 Rise Set
Actual Time 7:00 AM CDT 6:38 PM CDT
Civil Twilight 6:31 AM CDT 7:07 PM CDT
Nautical Twilight 5:57 AM CDT 7:40 PM CDT
Astronomical Twilight 5:23 AM CDT 8:15 PM CDT
Moon 2:11 PM CDT (10/3) 11:28 PM CDT (10/3)
Length of Visible Light 12h 35m
Length of Day
11h 37m
Waxing Crescent, 45% of the Moon is Illuminated
Oct 3
Waxing Crescent
Oct 3
First Quarter
Oct 11
Full
Oct 19
Last Quarter
Oct 26
New

Hourly Weather History & Observations

Time (CDT) Temp. Windchill Dew Point Humidity Pressure Visibility Wind Dir Wind Speed Gust Speed Precip Events Conditions
12:54 AM 48.0 °F - 44.1 °F 86% 30.19 in 10.0 mi WNW 4.6 mph - N/A   Clear
1:54 AM 51.1 °F - 44.1 °F 77% 30.20 in 10.0 mi NW 3.5 mph - N/A   Clear
2:54 AM 50.0 °F - 43.0 °F 77% 30.20 in 10.0 mi NW 5.8 mph - N/A   Clear
3:54 AM 45.0 °F 41.8 °F 42.1 °F 90% 30.22 in 10.0 mi ENE 5.8 mph - N/A   Clear
4:54 AM 48.0 °F - 42.1 °F 80% 30.22 in 10.0 mi NE 3.5 mph - N/A   Clear
5:54 AM 46.0 °F - 42.1 °F 86% 30.24 in 10.0 mi Calm Calm - N/A   Clear
6:54 AM 46.0 °F 44.8 °F 42.1 °F 86% 30.25 in 10.0 mi NE 3.5 mph - N/A   Clear
7:54 AM 48.9 °F - 44.1 °F 83% 30.26 in 10.0 mi Calm Calm - N/A   Clear
8:54 AM 53.1 °F - 44.1 °F 71% 30.27 in 10.0 mi ESE 5.8 mph - N/A   Clear
9:51 AM 57.2 °F - 44.6 °F 63% 30.26 in 2.0 mi ESE 6.9 mph - N/A   Haze
9:54 AM 57.9 °F - 45.0 °F 62% 30.28 in 4.0 mi ESE 9.2 mph - N/A   Haze
10:12 AM 59.0 °F - 44.6 °F 59% 30.26 in 2.0 mi East 6.9 mph - N/A   Haze
10:21 AM 60.8 °F - 44.6 °F 55% 30.27 in 10.0 mi East 6.9 mph - N/A   Clear
10:30 AM 60.8 °F - 46.4 °F 59% 30.27 in 2.0 mi ESE 4.6 mph - N/A   Haze
10:39 AM 60.8 °F - 44.6 °F 55% 30.27 in 1.0 mi ESE 4.6 mph - N/A   Haze
10:48 AM 62.6 °F - 44.6 °F 52% 30.27 in 4.0 mi East 6.9 mph - N/A   Haze
10:54 AM 62.1 °F - 45.0 °F 53% 30.28 in 10.0 mi ESE 5.8 mph - N/A   Clear
11:06 AM 62.6 °F - 44.6 °F 52% 30.27 in 1.5 mi East 5.8 mph - N/A   Haze
11:14 AM 64.4 °F - 46.4 °F 52% 30.27 in 2.0 mi East 5.8 mph - N/A   Haze
11:18 AM 62.6 °F - 44.6 °F 52% 30.27 in 1.0 mi ESE 6.9 mph - N/A   Haze
11:25 AM 64.4 °F - 44.6 °F 49% 30.27 in 1.5 mi ESE 6.9 mph - N/A   Haze
11:36 AM 64.4 °F - 46.4 °F 52% 30.27 in 0.5 mi East 6.9 mph - N/A   Haze
11:47 AM 66.2 °F - 46.4 °F 49% 30.27 in 4.0 mi East 6.9 mph - N/A   Haze
11:54 AM 66.0 °F - 46.9 °F 50% 30.28 in 2.5 mi ESE 4.6 mph - N/A   Haze
12:19 PM 66.2 °F - 46.4 °F 49% 30.27 in 2.0 mi ESE 5.8 mph - N/A   Haze
12:40 PM 68.0 °F - 46.4 °F 46% 30.26 in 10.0 mi Variable 4.6 mph - N/A   Clear
1:54 PM 71.1 °F - 48.0 °F 44% 30.24 in 2.5 mi Variable 4.6 mph - N/A   Haze
2:03 PM 69.8 °F - 48.2 °F 46% 30.23 in 10.0 mi Calm Calm - N/A   Clear
2:43 PM 73.4 °F - 48.2 °F 41% 30.22 in 1.8 mi ESE 3.5 mph - N/A   Haze
2:54 PM 72.0 °F - 48.0 °F 43% 30.22 in 10.0 mi Calm Calm - N/A   Clear
3:54 PM 72.0 °F - 46.9 °F 41% 30.22 in 10.0 mi Variable 3.5 mph - N/A   Clear
4:54 PM 72.0 °F - 46.9 °F 41% 30.21 in 10.0 mi East 3.5 mph - N/A   Clear
5:54 PM 69.1 °F - 48.9 °F 49% 30.22 in 10.0 mi East 3.5 mph - N/A   Clear
6:54 PM 62.1 °F - 50.0 °F 65% 30.23 in 10.0 mi Calm Calm - N/A   Clear
7:54 PM 57.9 °F - 48.9 °F 72% 30.23 in 10.0 mi Calm Calm - N/A   Clear
8:54 PM 55.0 °F - 48.9 °F 80% 30.23 in 10.0 mi Calm Calm - N/A   Clear
9:54 PM 54.0 °F - 48.9 °F 83% 30.24 in 10.0 mi Calm Calm - N/A   Clear
10:54 PM 53.1 °F - 48.0 °F 83% 30.24 in 10.0 mi Calm Calm - N/A   Clear
11:54 PM 54.0 °F - 46.9 °F 77% 30.24 in 10.0 mi Calm Calm - N/A   Clear